EW7114 Weather Reports


time (UTC)temp
F
wind
direction
speed
knots
gust
knots
rain 1hr
in
rain 24hr
in
rain mn
in
humidity
%
barometer
mb
20260505193524 58 115 5.2 12.2 0.00 0.02 0.02 46 1002.7
20260505193022 58 135 3.5 9.6 0.00 0.02 0.02 46 1002.8
20260505192522 58 128 7.0 11.3 0.00 0.02 0.02 46 1002.9
20260505192019 58 140 7.0 11.3 0.00 0.02 0.02 47 1002.8
20260505191526 57 120 7.8 10.4 0.00 0.02 0.02 47 1002.8
20260505191016 57 111 5.2 11.3 0.00 0.02 0.02 47 1002.8
20260505190518 57 124 6.1 13.0 0.00 0.02 0.02 47 1002.7
20260505190013 57 84 5.2 13.0 0.00 0.02 0.02 47 1002.8
20260505185512 57 109 7.8 12.2 0.00 0.02 0.02 48 1002.8
20260505185011 57 128 7.0 12.2 0.00 0.02 0.02 48 1002.9
20260505184510 56 91 5.2 13.0 0.00 0.02 0.02 47 1002.9
20260505184009 56 116 7.8 12.2 0.00 0.02 0.02 48 1003.0
20260505183507 56 130 8.7 12.2 0.00 0.02 0.02 48 1002.9
20260505183006 56 157 8.7 13.9 0.00 0.02 0.02 48 1003.0
20260505182505 56 143 7.8 13.9 0.00 0.02 0.02 47 1003.0
20260505182003 57 133 9.6 14.8 0.00 0.02 0.02 47 1002.9
20260505181502 56 115 8.7 13.9 0.00 0.02 0.02 47 1003.0
20260505181101 56 157 7.8 13.9 0.00 0.02 0.02 47 1003.0
20260505180558 56 138 7.8 12.2 0.00 0.02 0.02 48 1003.0
20260505180057 55 159 6.1 13.0 0.00 0.02 0.02 47 1002.9
20260505175555 56 134 7.0 13.0 0.00 0.02 0.02 48 1002.9
20260505175054 56 184 7.8 12.2 0.00 0.02 0.02 48 1002.9
20260505174601 56 157 9.6 13.0 0.00 0.02 0.02 49 1002.9
20260505174051 56 151 8.7 13.0 0.00 0.02 0.02 49 1002.9
20260505173551 56 134 7.8 13.0 0.00 0.02 0.02 49 1002.9
20260505173051 56 153 7.8 13.0 0.00 0.02 0.02 50 1002.9
20260505172547 55 158 7.8 13.0 0.00 0.02 0.02 50 1002.8
20260505172046 54 151 7.8 12.2 0.00 0.02 0.02 49 1003.0
20260505171544 54 159 7.0 10.4 0.00 0.02 0.02 49 1003.0
20260505171043 53 156 7.0 9.6 0.00 0.02 0.02 49 1003.0
20260505170541 53 164 6.1 8.7 0.00 0.02 0.02 48 1003.0
20260505170040 52 153 6.1 9.6 0.00 0.02 0.02 46 1003.0
20260505165541 52 178 5.2 9.6 0.00 0.02 0.02 46 1003.0
20260505165037 52 176 4.3 9.6 0.00 0.02 0.02 46 1003.0
20260505164535 51 191 7.0 8.7 0.00 0.02 0.02 46 1003.1
20260505164035 51 184 4.3 7.0 0.00 0.02 0.02 41 1003.1
20260505163532 51 188 2.6 5.2 0.00 0.02 0.02 31 1003.2
20260505163032 51 188 2.6 5.2 0.00 0.02 0.02 31 1003.2
20260505162530 51 203 2.6 7.0 0.00 0.02 0.02 32 1003.2
20260505162028 50 192 4.3 8.7 0.00 0.02 0.02 35 1003.2
20260505161538 51 186 5.2 8.7 0.00 0.02 0.02 36 1003.2
20260505161025 50 167 6.1 7.8 0.00 0.02 0.02 40 1003.0
20260505160526 50 174 5.2 7.8 0.00 0.02 0.02 41 1003.0
20260505153015 50 145 4.3 10.4 0.00 0.02 0.02 48 1002.8
20260505152512 50 149 4.3 7.8 0.00 0.02 0.02 48 1002.8
20260505152010 50 158 3.5 7.8 0.00 0.02 0.02 48 1002.9
20260505151508 50 182 2.6 6.1 0.00 0.02 0.02 45 1002.8
20260505151006 50 201 0.0 7.0 0.00 0.02 0.02 43 1002.9
20260505150505 50 201 1.7 7.0 0.00 0.02 0.02 43 1002.8
20260505140547 49 279 1.7 3.5 0.00 0.02 0.02 22 1002.9
20260505125026 47 135 0.9 2.6 0.00 0.02 0.02 1 1001.9
20260505124525 47 135 0.9 3.5 0.00 0.02 0.02 1 1001.9
20260505124027 47 135 0.9 3.5 0.00 0.02 0.02 1 1001.9
20260505123521 47 135 0.9 3.5 0.00 0.02 0.02 1 1001.9
20260505123021 48 135 1.7 5.2 0.00 0.02 0.02 1 1001.8
20260505122520 48 138 2.6 5.2 0.00 0.02 0.02 1 1001.8
20260505122021 48 138 2.6 5.2 0.00 0.02 0.02 1 1001.9
20260505121530 48 138 2.6 6.1 0.00 0.02 0.02 1 1001.8
20260505121015 48 171 3.5 6.1 0.00 0.02 0.02 1 1001.8
20260505120517 49 153 4.3 7.0 0.00 0.02 0.02 1 1001.7
20260505120011 48 179 4.3 7.0 0.00 0.02 0.02 1 1001.7
20260505115510 48 158 3.5 7.0 0.00 0.02 0.02 1 1001.7
20260505115008 47 190 2.6 5.2 0.00 0.02 0.02 1 1001.6
20260505114507 47 190 2.6 4.3 0.00 0.02 0.02 1 1001.5
20260505114006 48 190 0.9 4.3 0.00 0.02 0.02 1 1001.5
20260505113503 47 190 1.7 5.2 0.00 0.02 0.02 1 1001.6
20260505113003 47 200 3.5 5.2 0.00 0.02 0.02 1 1001.5
20260505112501 47 176 2.6 7.0 0.00 0.02 0.02 1 1001.4
20260505112100 47 161 4.3 7.0 0.00 0.02 0.02 1 1001.5
20260505111558 48 159 3.5 6.1 0.00 0.02 0.02 1 1001.4
20260505111057 48 188 1.7 4.3 0.00 0.02 0.02 1 1001.3
20260505110558 48 187 0.9 5.2 0.00 0.02 0.02 1 1001.3
20260505110105 48 188 2.6 6.1 0.00 0.02 0.02 1 1001.3
20260505102042 47 130 2.6 4.3 0.01 0.02 0.02 1 1001.4
20260505101548 48 130 2.6 4.3 0.01 0.02 0.02 1 1001.4
20260505101040 48 108 1.7 3.5 0.01 0.02 0.02 1 1001.2
20260505100540 48 108 1.7 3.5 0.01 0.02 0.02 1 1001.3
20260505100036 48 108 2.6 6.1 0.01 0.02 0.02 1 1001.3
20260505095538 48 93 1.7 6.1 0.01 0.02 0.02 1 1001.5
20260505095033 49 118 3.5 6.1 0.01 0.02 0.02 1 1001.5
20260505094531 49 111 3.5 6.1 0.01 0.02 0.02 1 1001.6
20260505094030 50 123 2.6 4.3 0.01 0.02 0.02 1 1001.6
20260505093528 49 175 1.7 5.2 0.01 0.02 0.02 1 1001.6
20260505093027 49 261 0.0 5.2 0.01 0.01 0.01 1 1001.6
20260505092528 48 359 0.9 3.5 0.01 0.01 0.01 1 1001.7
20260505092025 49 191 0.9 2.6 0.01 0.01 0.01 1 1001.9
20260505091523 49 191 0.0 1.7 0.01 0.01 0.01 1 1002.0
20260505091022 49 191 0.0 1.7 0.01 0.01 0.01 1 1002.1
20260505090521 49 191 0.0 0.0 0.01 0.01 0.01 1 1002.2
20260505090035 49 191 0.0 2.6 0.01 0.01 0.01 1 1002.3
20260505085517 49 191 0.0 3.5 0.01 0.01 0.01 1 1002.5
20260505085016 49 191 1.7 2.6 0.01 0.01 0.01 1 1002.6
20260505084514 49 191 0.0 3.5 0.01 0.01 0.01 1 1002.7
20260505084012 49 191 0.9 3.5 0.01 0.01 0.01 1 1002.7
20260505083513 49 191 0.0 3.5 0.01 0.01 0.01 1 1002.5
20260505083010 49 191 0.9 6.1 0.00 0.00 0.00 1 1002.6
20260505082512 49 191 2.6 8.7 0.00 0.00 0.00 1 1002.7
20260505082008 49 126 4.3 8.7 0.00 0.00 0.00 1 1002.6
20260505081506 49 147 5.2 7.8 0.00 0.00 0.00 1 1002.7
20260505081008 49 140 4.3 6.1 0.00 0.00 0.00 1 1002.7
20260505080503 49 166 3.5 5.2 0.00 0.00 0.00 1 1002.7
20260505075501 50 164 4.3 5.2 0.00 0.00 0.00 1 1002.8
20260505075100 50 183 3.5 5.2 0.00 0.00 0.00 1 1002.8
20260505074559 49 138 0.9 4.3 0.00 0.00 0.00 1 1002.7
20260505074059 49 138 1.7 4.3 0.00 0.00 0.00 1 1002.7
20260505073558 49 138 1.7 7.0 0.00 0.00 0.00 1 1002.8
20260505073056 50 138 3.5 7.8 0.00 0.00 0.00 1 1002.8
20260505072554 50 130 3.5 7.8 0.00 0.00 0.00 1 1002.8
20260505072051 50 113 5.2 8.7 0.00 0.00 0.00 1 1002.8
20260505071552 50 142 5.2 8.7 0.00 0.00 0.00 1 1002.8
20260505071048 50 179 6.1 8.7 0.00 0.00 0.00 1 1002.8
20260505070547 50 174 4.3 8.7 0.00 0.00 0.00 1 1002.8
20260505070045 51 196 3.5 6.1 0.00 0.00 0.00 1 1002.7
20260505065544 51 182 3.5 9.6 0.00 0.00 0.00 1 1002.5
20260505065042 52 168 5.2 12.2 0.00 0.00 0.00 10 1002.5
20260505064543 53 154 7.8 13.9 0.00 0.00 0.00 27 1002.5
20260505064040 53 161 8.7 13.9 0.00 0.00 0.00 31 1002.4
20260505063540 53 152 11.3 13.9 0.00 0.00 0.00 28 1002.4
20260505063040 52 132 9.6 13.0 0.00 0.00 0.00 27 1002.3
20260505062539 52 140 8.7 12.2 0.00 0.00 0.00 27 1002.4
20260505062040 52 135 8.7 13.0 0.00 0.00 0.00 27 1002.4
20260505061538 52 153 9.6 13.0 0.00 0.00 0.00 29 1002.4
20260505061034 53 133 7.0 13.0 0.00 0.00 0.00 32 1002.4
20260505060533 53 105 8.7 13.0 0.00 0.00 0.00 31 1002.5
20260505060036 53 113 7.8 13.0 0.00 0.00 0.00 31 1002.6
20260505055532 53 134 7.8 14.8 0.00 0.00 0.00 30 1002.5
20260505055032 53 132 8.7 12.2 0.00 0.00 0.00 29 1002.4
20260505054533 53 107 7.8 13.0 0.00 0.00 0.00 27 1002.4
20260505054031 53 122 8.7 13.9 0.00 0.00 0.00 26 1002.3
20260505053532 53 126 8.7 12.2 0.00 0.00 0.00 24 1002.3
20260505053035 53 120 9.6 12.2 0.00 0.00 0.00 23 1002.3
20260505052531 53 154 7.0 13.9 0.00 0.00 0.00 22 1002.3
20260505052031 53 128 8.7 14.8 0.00 0.00 0.00 19 1002.4
20260505051531 52 108 9.6 14.8 0.00 0.00 0.00 17 1002.3
20260505051030 52 146 7.8 13.0 0.00 0.00 0.00 14 1002.4
20260505050530 52 150 9.6 13.0 0.00 0.00 0.00 17 1002.4
20260505041525 55 132 11.3 17.4 0.00 0.00 0.00 48 1001.8
20260505041026 56 149 12.2 19.1 0.00 0.00 0.00 51 1001.6
20260505040524 56 142 13.0 20.0 0.00 0.00 0.00 52 1001.3
20260505040023 57 140 11.3 17.4 0.00 0.00 0.00 52 1000.9
20260505035526 56 135 11.3 17.4 0.00 0.00 0.00 52 1000.9
20260505035023 56 133 7.8 12.2 0.00 0.00 0.00 52 1000.8
20260505034524 57 127 7.0 12.2 0.00 0.00 0.00 52 1000.6
20260505034023 57 105 7.8 10.4 0.00 0.00 0.00 52 1000.6
20260505033525 57 130 7.8 10.4 0.00 0.00 0.00 52 1000.5
20260505033033 57 149 4.3 7.0 0.00 0.00 0.00 52 1000.6
20260505032623 57 151 4.3 8.7 0.00 0.00 0.00 52 1000.5
20260505032023 57 135 4.3 7.8 0.00 0.00 0.00 52 1000.5
20260505031523 57 112 2.6 9.6 0.00 0.00 0.00 52 1000.3
20260505031022 57 152 5.2 13.9 0.00 0.00 0.00 52 1000.2
20260505030521 58 134 7.0 13.9 0.00 0.00 0.00 52 1000.2
20260505030021 58 138 7.8 13.9 0.00 0.00 0.00 51 1000.2
20260505025521 58 135 8.7 14.8 0.00 0.00 0.00 51 1000.1
20260505025021 58 157 8.7 14.8 0.00 0.00 0.00 51 1000.1
20260505024527 58 136 7.8 11.3 0.00 0.00 0.00 51 1000.1
20260505024022 58 165 7.8 16.5 0.00 0.00 0.00 51 1000.1
20260505023520 58 140 10.4 19.1 0.00 0.00 0.00 51 1000.1
20260505023031 59 159 12.2 18.2 0.00 0.00 0.00 50 1000.0
20260505022520 60 159 13.0 18.2 0.00 0.00 0.00 49 999.9
20260505022020 60 175 13.0 19.1 0.00 0.00 0.00 48 999.9
20260505021519 61 177 13.9 16.5 0.00 0.00 0.00 47 999.8
20260505021021 62 160 12.2 20.0 0.00 0.00 0.00 45 999.9
20260505020518 63 168 13.0 20.0 0.00 0.00 0.00 43 999.8
20260505020019 64 153 8.7 13.9 0.00 0.00 0.00 40 999.6
20260505015620 64 145 9.6 13.9 0.00 0.00 0.00 39 999.4
20260505015018 64 142 7.8 11.3 0.00 0.00 0.00 38 999.2
20260505014531 65 135 7.8 11.3 0.00 0.00 0.00 38 999.2
20260505014018 65 130 6.1 9.6 0.00 0.00 0.00 37 999.1
20260505013516 66 122 5.2 8.7 0.00 0.00 0.00 37 999.1
20260505013017 66 157 4.3 7.0 0.00 0.00 0.00 37 999.0
20260505012516 67 184 2.6 4.3 0.00 0.00 0.00 37 999.1
20260505012016 67 196 0.9 4.3 0.00 0.00 0.00 37 999.1
20260505011515 68 217 1.7 4.3 0.00 0.00 0.00 36 999.0
20260505011014 68 218 1.7 3.5 0.00 0.00 0.00 35 999.1
20260505010514 68 228 0.9 4.3 0.00 0.00 0.00 36 999.2
20260505010013 68 239 0.9 5.2 0.00 0.00 0.00 37 999.2
20260505005511 68 245 0.9 6.1 0.00 0.00 0.00 36 999.2
20260505005011 67 245 1.7 6.1 0.00 0.00 0.00 36 999.3
20260505004515 67 255 0.9 7.0 0.00 0.00 0.00 38 999.4
20260505004009 67 249 1.7 7.8 0.00 0.00 0.00 39 999.4
20260505003507 67 222 6.1 7.8 0.00 0.00 0.00 40 999.6
20260505003007 67 197 0.9 5.2 0.00 0.00 0.00 39 999.6
20260505002507 67 228 1.7 5.2 0.00 0.00 0.00 37 999.6
20260505002007 67 220 2.6 5.2 0.00 0.00 0.00 38 999.6
20260505001507 67 184 0.0 4.3 0.00 0.00 0.00 36 999.6
20260505001007 67 184 2.6 4.3 0.00 0.00 0.00 36 999.7
20260505000505 67 199 0.0 5.2 0.00 0.00 0.00 36 999.7
20260505000010 68 165 3.5 7.0 0.00 0.00 0.00 35 999.7
20260504235505 68 325 2.6 7.0 0.00 0.00 0.00 35 999.7
20260504235004 68 288 1.7 7.0 0.00 0.00 0.00 36 999.7
20260504234504 68 244 1.7 7.0 0.00 0.00 0.00 36 999.7
20260504234006 67 264 0.9 7.8 0.00 0.00 0.00 36 999.7
20260504233504 67 267 1.7 6.1 0.00 0.00 0.00 37 999.7
20260504233003 67 345 0.0 2.6 0.00 0.00 0.00 37 999.7
20260504232505 67 345 0.9 5.2 0.00 0.00 0.00 37 999.7
20260504232003 66 302 0.9 5.2 0.00 0.00 0.00 37 999.7
20260504231502 66 246 0.9 3.5 0.00 0.00 0.00 37 999.8
20260504231002 66 317 1.7 4.3 0.00 0.00 0.00 37 999.8
20260504230502 66 355 0.0 4.3 0.00 0.00 0.00 37 999.9
20260504230101 66 359 1.7 4.3 0.00 0.00 0.00 37 999.9
20260504225600 66 359 0.0 4.3 0.00 0.00 0.00 40 1000.0
20260504225059 65 28 0.0 3.5 0.00 0.00 0.00 41 1000.2
20260504224600 65 355 0.9 7.8 0.00 0.00 0.00 40 1000.2
20260504224058 64 28 2.6 7.8 0.00 0.00 0.00 42 1000.3
20260504223601 64 43 2.6 8.7 0.00 0.00 0.00 42 1000.5
20260504223101 63 95 5.2 12.2 0.00 0.00 0.00 43 1000.6
20260504222559 63 100 7.8 13.9 0.00 0.00 0.00 43 1000.6
20260504222058 64 109 8.7 12.2 0.00 0.00 0.00 42 1000.6
20260504221558 64 93 7.8 12.2 0.00 0.00 0.00 42 1000.6
20260504221057 65 84 7.8 12.2 0.00 0.00 0.00 43 1000.7
20260504220557 65 107 7.0 10.4 0.00 0.00 0.00 42 1000.8
20260504220056 64 155 1.7 7.0 0.00 0.00 0.00 43 1000.9
20260504215601 63 128 1.7 7.0 0.00 0.00 0.00 43 1001.0
20260504215056 63 124 3.5 8.7 0.00 0.00 0.00 44 1001.1
20260504214657 63 136 3.5 8.7 0.00 0.00 0.00 45 1001.2
20260504214055 63 130 5.2 7.8 0.00 0.00 0.00 46 1001.3
20260504213556 63 84 1.7 5.2 0.00 0.00 0.00 44 1001.3
20260504213057 63 9 1.7 5.2 0.00 0.00 0.00 42 1001.4
20260504212556 63 59 2.6 7.0 0.00 0.00 0.00 44 1001.7
20260504212058 63 59 2.6 10.4 0.00 0.00 0.00 44 1001.7
20260504211556 63 24 4.3 14.8 0.00 0.00 0.00 45 1001.8
20260504211055 63 57 7.8 14.8 0.00 0.00 0.00 45 1001.7
20260504210554 63 41 9.6 19.1 0.00 0.00 0.00 45 1001.6
20260504205556 65 51 10.4 17.4 0.00 0.00 0.00 42 1001.4
20260504205058 64 53 11.3 20.9 0.00 0.00 0.00 44 1001.1
20260504204610 65 63 14.8 20.9 0.00 0.00 0.00 41 1000.9
20260504204055 65 49 7.0 15.6 0.00 0.00 0.00 40 1000.9
20260504203554 66 14 8.7 15.6 0.00 0.00 0.00 40 1000.8
20260504203124 66 19 10.4 17.4 0.00 0.00 0.00 40 1000.9
20260504202554 66 359 11.3 17.4 0.00 0.00 0.00 40 1000.8
20260504202054 66 332 11.3 19.1 0.00 0.00 0.00 39 1000.7
20260504201553 66 345 12.2 19.1 0.00 0.00 0.00 39 1000.7
20260504201053 67 329 10.4 13.9 0.00 0.00 0.00 38 1000.7
20260504200552 67 318 7.0 15.6 0.00 0.00 0.00 38 1000.7
20260504200052 66 339 9.6 15.6 0.00 0.00 0.00 37 1000.7
20260504195552 67 313 1.7 12.2 0.00 0.00 0.00 36 1000.6
20260504195052 66 201 3.5 12.2 0.00 0.00 0.00 38 1000.4
20260504194552 67 190 2.6 8.7 0.00 0.00 0.00 38 1000.4
20260504194052 67 195 4.3 8.7 0.00 0.00 0.00 38 1000.4